Terminal Aerodrome Forecast
Issued by NWS Wilmington, OH

Home | Current Version | Previous Version | Text Only | Print | Product List | Glossary On
Versions: 1 2 3 4 5 6 7 8 9 10 11 12 13 14 15 16 17 18 19 20 21 22 23 24 25
000
FTUS41 KILN 251251 AAA
TAFCMH
TAF AMD
KCMH 251251Z 2513/2612 27018G28KT P6SM SCT025 BKN050
      TEMPO 2513/2516 BKN025
     FM251600 25015G25KT P6SM SCT025 BKN250
      TEMPO 2516/2519 BKN025
     FM251900 26014KT P6SM FEW025 SCT250
     FM252200 26007KT P6SM SKC=

USA.gov is the U.S. government's official web portal to all federal, state and local government web resources and services.